When you browse on this site, cookies collect data to enhance your experience and personalize the content and advertising you see.
Visit our Privacy Policy to learn more. By continuing to use the site, you agree to this use of cookies and data.
  • In Austria
  • List of Countries
  • For 7 days
  • Water Temperature
  • Weather Map
  • News
  • Weather Widgets
  • user-avatar
    Login

    Hourly Weather Warsaw

    Today, 3 April, Friday

    Time Temperature Precipitation Wind Pressure Humidity
    00:00 +3°C° 0 mm 4 mps 745 mmHg 71%
    01:00 +3°C° 0 mm 4 mps 744 mmHg 68%
    02:00 +3°C° 0 mm 4 mps 744 mmHg 68%
    03:00 +2°C° 0 mm 5 mps 744 mmHg 68%
    04:00 +2°C° 0 mm 5 mps 744 mmHg 68%
    05:00 +3°C° 0 mm 6 mps 744 mmHg 69%
    06:00 +3°C° 0 mm 6 mps 745 mmHg 69%
    07:00 +3°C° 0 mm 7 mps 745 mmHg 69%
    08:00 +3°C° 0 mm 7 mps 745 mmHg 69%
    09:00 +4°C° 0 mm 7 mps 746 mmHg 69%
    10:00 +4°C° 0 mm 7 mps 746 mmHg 69%
    11:00 +5°C° 0 mm 7 mps 747 mmHg 61%
    12:00 +6°C° 0 mm 7 mps 747 mmHg 52%
    13:00 +9°C° 0 mm 7 mps 748 mmHg 43%
    14:00 +9°C° 0 mm 7 mps 748 mmHg 43%
    15:00 +8°C° 0 mm 7 mps 749 mmHg 43%
    16:00 +8°C° 0 mm 7 mps 749 mmHg 42%
    17:00 +7°C° 0 mm 6 mps 750 mmHg 48%
    18:00 +6°C° 0 mm 5 mps 750 mmHg 53%
    19:00 +4°C° 0 mm 4 mps 751 mmHg 58%
    20:00 +4°C° 0 mm 4 mps 752 mmHg 61%
    21:00 +3°C° 0 mm 3 mps 752 mmHg 63%
    22:00 +2°C° 0 mm 3 mps 753 mmHg 65%
    23:00 +2°C° 0 mm 3 mps 753 mmHg 67%

    Tomorrow, 4 April, Saturday

    Time Temperature Precipitation Wind Pressure Humidity
    00:00 +2°C° 0 mm 3 mps 754 mmHg 68%
    01:00 +1°C° 0 mm 3 mps 754 mmHg 69%
    02:00 +2°C° 0 mm 2 mps 755 mmHg 71%
    03:00 +2°C° 0 mm 2 mps 755 mmHg 72%
    04:00 +1°C° 0 mm 2 mps 756 mmHg 73%
    05:00 +2°C° 0 mm 2 mps 756 mmHg 70%
    06:00 +3°C° 0 mm 2 mps 757 mmHg 67%
    07:00 +4°C° 0 mm 2 mps 758 mmHg 64%
    08:00 +4°C° 0 mm 3 mps 758 mmHg 58%
    09:00 +7°C° 0 mm 3 mps 758 mmHg 53%
    10:00 +7°C° 0 mm 4 mps 759 mmHg 48%
    11:00 +7°C° 0 mm 4 mps 759 mmHg 46%
    12:00 +9°C° 0 mm 3 mps 759 mmHg 44%
    13:00 +10°C° 0 mm 3 mps 760 mmHg 42%
    14:00 +9°C° 0 mm 3 mps 760 mmHg 43%
    15:00 +9°C° 0 mm 3 mps 760 mmHg 44%
    16:00 +9°C° 0 mm 3 mps 760 mmHg 44%
    17:00 +8°C° 0 mm 2 mps 761 mmHg 49%
    18:00 +7°C° 0 mm 2 mps 761 mmHg 53%
    19:00 +7°C° 0 mm 1 mps 762 mmHg 58%
    20:00 +6°C° 0 mm 1 mps 762 mmHg 60%
    21:00 +6°C° 0 mm 1 mps 763 mmHg 62%
    22:00 +4°C° 0 mm 0 mps 763 mmHg 65%
    23:00 +4°C° 0 mm 0 mps 764 mmHg 66%

    Day after tomorrow, 5 April, Sunday

    Time Temperature Precipitation Wind Pressure Humidity
    00:00 +3°C° 0 mm 0 mps 764 mmHg 68%
    01:00 +3°C° 0 mm 0 mps 765 mmHg 70%
    02:00 +3°C° 0 mm 0 mps 765 mmHg 72%
    03:00 +2°C° 0 mm 0 mps 765 mmHg 73%
    04:00 +2°C° 0 mm 0 mps 765 mmHg 74%
    05:00 +3°C° 0 mm 0 mps 766 mmHg 70%
    06:00 +4°C° 0 mm 0 mps 766 mmHg 67%
    07:00 +6°C° 0 mm 1 mps 767 mmHg 63%
    08:00 +8°C° 0 mm 1 mps 767 mmHg 57%
    09:00 +10°C° 0 mm 1 mps 767 mmHg 51%
    10:00 +10°C° 0 mm 2 mps 767 mmHg 45%
    11:00 +12°C° 0 mm 2 mps 767 mmHg 42%
    12:00 +13°C° 0 mm 2 mps 767 mmHg 39%
    13:00 +13°C° 0 mm 2 mps 767 mmHg 36%
    14:00 +12°C° 0 mm 3 mps 766 mmHg 37%
    15:00 +12°C° 0 mm 3 mps 766 mmHg 37%
    16:00 +12°C° 0 mm 3 mps 766 mmHg 38%
    17:00 +11°C° 0 mm 3 mps 766 mmHg 43%
    18:00 +9°C° 0 mm 3 mps 766 mmHg 48%
    19:00 +8°C° 0 mm 3 mps 766 mmHg 52%
    20:00 +7°C° 0 mm 3 mps 766 mmHg 54%
    21:00 +7°C° 0 mm 3 mps 766 mmHg 55%
    22:00 +5°C° 0 mm 3 mps 766 mmHg 57%
    23:00 +5°C° 0 mm 3 mps 766 mmHg 58%

    6 April, Monday

    Time Temperature Precipitation Wind Pressure Humidity
    00:00 +4°C° 0 mm 3 mps 766 mmHg 60%
    01:00 +4°C° 0 mm 3 mps 766 mmHg 62%
    02:00 +4°C° 0 mm 4 mps 766 mmHg 62%
    03:00 +3°C° 0 mm 4 mps 766 mmHg 62%
    04:00 +3°C° 0 mm 4 mps 766 mmHg 62%
    05:00 +4°C° 0 mm 4 mps 766 mmHg 59%
    06:00 +5°C° 0 mm 5 mps 766 mmHg 56%
    07:00 +5°C° 0 mm 5 mps 766 mmHg 54%
    08:00 +7°C° 0 mm 5 mps 766 mmHg 51%
    09:00 +9°C° 0 mm 5 mps 766 mmHg 49%
    10:00 +12°C° 0 mm 5 mps 766 mmHg 47%
    11:00 +13°C° 0 mm 5 mps 765 mmHg 44%
    12:00 +15°C° 0 mm 6 mps 765 mmHg 42%
    13:00 +16°C° 0 mm 6 mps 765 mmHg 39%
    14:00 +16°C° 0 mm 5 mps 765 mmHg 40%
    15:00 +16°C° 0 mm 5 mps 764 mmHg 41%
    16:00 +16°C° 0 mm 5 mps 764 mmHg 42%
    17:00 +14°C° 0 mm 5 mps 764 mmHg 46%
    18:00 +12°C° 0 mm 4 mps 764 mmHg 51%
    19:00 +11°C° 0 mm 4 mps 764 mmHg 55%
    20:00 +10°C° 0 mm 4 mps 764 mmHg 57%
    21:00 +8°C° 0 mm 4 mps 764 mmHg 58%
    22:00 +8°C° 0 mm 4 mps 765 mmHg 59%
    23:00 +7°C° 0 mm 4 mps 765 mmHg 60%

    7 April, Tuesday

    Time Temperature Precipitation Wind Pressure Humidity
    00:00 +7°C° 0 mm 3 mps 765 mmHg 62%
    01:00 +7°C° 0 mm 3 mps 765 mmHg 63%
    02:00 +5°C° 0 mm 3 mps 765 mmHg 64%
    03:00 +5°C° 0 mm 3 mps 765 mmHg 65%
    04:00 +6°C° 0 mm 2 mps 765 mmHg 66%
    05:00 +7°C° 0 mm 2 mps 765 mmHg 64%
    06:00 +8°C° 0 mm 3 mps 765 mmHg 62%
    07:00 +9°C° 0 mm 3 mps 765 mmHg 59%
    08:00 +11°C° 0 mm 3 mps 765 mmHg 53%
    09:00 +13°C° 0 mm 4 mps 765 mmHg 47%
    10:00 +15°C° 0 mm 4 mps 765 mmHg 41%
    11:00 +15°C° 0 mm 4 mps 765 mmHg 39%
    12:00 +17°C° 0 mm 4 mps 765 mmHg 36%
    13:00 +18°C° 0 mm 4 mps 765 mmHg 34%
    14:00 +18°C° 0 mm 4 mps 765 mmHg 35%
    15:00 +18°C° 0 mm 4 mps 765 mmHg 35%
    16:00 +18°C° 0 mm 3 mps 764 mmHg 36%
    17:00 +16°C° 0 mm 3 mps 765 mmHg 41%
    18:00 +15°C° 0 mm 2 mps 765 mmHg 47%
    19:00 +13°C° 0 mm 2 mps 765 mmHg 52%
    20:00 +12°C° 0 mm 2 mps 765 mmHg 53%
    21:00 +12°C° 0 mm 1 mps 765 mmHg 55%
    22:00 +11°C° 0 mm 1 mps 765 mmHg 57%
    23:00 +10°C° 0 mm 2 mps 766 mmHg 61%

    8 April, Wednesday

    Time Temperature Precipitation Wind Pressure Humidity
    00:00 +9°C° 0 mm 2 mps 766 mmHg 66%
    01:00 +9°C° 0 mm 2 mps 766 mmHg 71%
    02:00 +8°C° 0 mm 2 mps 766 mmHg 77%
    03:00 +7°C° 0 mm 2 mps 766 mmHg 82%
    04:00 +7°C° 0 mm 2 mps 766 mmHg 88%
    05:00 +8°C° 0 mm 2 mps 766 mmHg 84%
    06:00 +8°C° 0 mm 2 mps 766 mmHg 81%
    07:00 +9°C° 0 mm 2 mps 766 mmHg 77%
    08:00 +12°C° 0 mm 2 mps 766 mmHg 70%
    09:00 +13°C° 0 mm 2 mps 766 mmHg 62%
    10:00 +15°C° 0 mm 2 mps 766 mmHg 55%
    11:00 +16°C° 0 mm 2 mps 765 mmHg 49%
    12:00 +17°C° 0 mm 2 mps 765 mmHg 44%
    13:00 +18°C° 0 mm 2 mps 765 mmHg 38%
    14:00 +18°C° 0 mm 2 mps 765 mmHg 37%
    15:00 +18°C° 0 mm 2 mps 764 mmHg 35%
    16:00 +18°C° 0 mm 2 mps 764 mmHg 34%
    17:00 +16°C° 0 mm 2 mps 764 mmHg 39%
    18:00 +14°C° 0 mm 1 mps 764 mmHg 44%
    19:00 +13°C° 0 mm 1 mps 764 mmHg 49%
    20:00 +12°C° 0 mm 1 mps 764 mmHg 52%
    21:00 +11°C° 0 mm 1 mps 764 mmHg 56%
    22:00 +10°C° 0 mm 1 mps 764 mmHg 59%
    23:00 +10°C° 0 mm 1 mps 764 mmHg 64%
    Show more